Tracking 23885 objects as of 28-Nov-2021
HD Live streaming from Space Station
objects crossing your sky now

SPACEBEE-82

Track SPACEBEE-82 now!
10-day predictions


NORAD ID: 47708
Int'l Code: 2021-015K
Perigee: 491.4 km
Apogee: 506.4 km
Inclination: 97.4 °
Period: 94.4 minutes
Semi major axis: 6869 km
RCS: Unknown
Launch date: February 28, 2021
Source: United States (US)
Launch site: SRIHARIKOTA (SRI)
aabbcc
Your satellite tracking list
Your tracking list is empty




NASA's NSSDC Master Catalog

Two Line Element Set (TLE):
1 47708U 21015K   21331.46038538  .00007646  00000-0  31185-3 0  9996
2 47708  97.4387  44.4537 0010886  67.6828 292.5562 15.24666847 41413
Source of the keplerian elements: AFSPC